This is the latest recevied weather packets stored in our database for station/object VK4HIT-13. If no packets are shown the sender has not sent any weather packets the latest 10 day(s).
| Time | Temp. | Humidity | Pressure | Rain* | Wind** | Luminosity | Snow |
|---|---|---|---|---|---|---|---|
| 1777448983 | 20.56° C | 70% | 1024.4 hPa | 0 mm | - | - | - |
| 1777448683 | 21.11° C | 69% | 1024.2 hPa | 0 mm | - | - | - |
| 1777448383 | 21.11° C | 68% | 1024.2 hPa | 0 mm | - | - | - |
| 1777448083 | 21.11° C | 68% | 1024.3 hPa | 0 mm | - | - | - |
| 1777447783 | 21.11° C | 67% | 1024.2 hPa | 0 mm | - | - | - |
| 1777447483 | 21.11° C | 67% | 1024.2 hPa | 0 mm | - | - | - |
| 1777447183 | 21.11° C | 66% | 1024.1 hPa | 0 mm | - | - | - |
| 1777446883 | 21.67° C | 65% | 1024.1 hPa | 0 mm | - | - | - |
| 1777446583 | 21.67° C | 65% | 1024.2 hPa | 0 mm | - | - | - |
| 1777446283 | 21.67° C | 65% | 1024.1 hPa | 0 mm | - | - | - |
| 1777445983 | 21.67° C | 65% | 1024.1 hPa | 0 mm | - | - | - |
| 1777445683 | 21.67° C | 65% | 1024 hPa | 0 mm | - | - | - |
| 1777445383 | 21.67° C | 64% | 1023.9 hPa | 0 mm | - | - | - |
| 1777445083 | 21.67° C | 64% | 1023.8 hPa | 0 mm | - | - | - |
| 1777444783 | 21.67° C | 64% | 1023.8 hPa | 0 mm | - | - | - |
| 1777444483 | 21.67° C | 65% | 1023.8 hPa | 0 mm | - | - | - |
| 1777444183 | 21.67° C | 65% | 1023.8 hPa | 0 mm | - | - | - |
| 1777443883 | 22.22° C | 66% | 1023.8 hPa | 0 mm | - | - | - |
| 1777443583 | 22.22° C | 66% | 1023.7 hPa | 0 mm | - | - | - |
| 1777443283 | 22.78° C | 65% | 1023.7 hPa | 0 mm | - | - | - |
| 1777442983 | 22.78° C | 63% | 1023.7 hPa | 0 mm | - | - | - |
| 1777442683 | 23.33° C | 62% | 1023.5 hPa | 0 mm | - | - | - |
| 1777442383 | 22.78° C | 62% | 1023.5 hPa | 0 mm | - | - | - |
| 1777442083 | 22.22° C | 64% | 1023.4 hPa | 0 mm | - | - | - |
| 1777441783 | 21.67° C | 65% | 1023.4 hPa | 0 mm | - | - | - |
* Rain latest hour (hover to see other rain measurements)
** Current wind speed in m/s (hover to see current wind gust speed)